sat.trackr.live / text

‹ back to catalog

STARLINK-30874

NORAD 58227 · 2023-170X

PAYLOAD ACTIVE UNKNOWN

§ Identity

Operator
Country
US
Launch date
2023-11-03
Launch site
AFETR
Launch vehicle
Mass (kg)
RCS (m²)

Purposes: comms

External: N2YO · Heavens-Above · Gunter

§ Orbital elements

Epoch: 2026-09-20T10:45:50.433696Z

Period
94.27 min
Inclination
43.0006°
Eccentricity
0.0001604
Mean motion
15.27573738 rev/d
Perigee alt
482.0 km
Apogee alt
484.2 km
Semi-major
6,861.2 km
B*
5.7144e-5
RAAN
174.4597°
Arg perigee
261.9024°
Mean anomaly
98.1646°
Rev number
16,008

§ Raw data

STARLINK-308741 58227U 23170X   26263.44850039  .00001310  00000+0  57144-4 0  99982 58227  43.0006 174.4597 0001604 261.9024  98.1646 15.27573738160088

JSON: /api/v1/satellites/58227 · /tle

For live sub-satellite position, see the globe view (requires WebGL).

§ Visibility from observer

Set your observer location to see the next 7 days of passes ≥ 10°. The values pass through the URL so the page stays shareable.

No JS? Fill the form by hand. The geolocation button needs JavaScript.